User: anonymous   Login
Location: Unspecified
(0.0000°N, 0.0000°E)
Time: 07:40:44
(UTC+00:00)
Language:

AUBIESAT-1 - Orbit

View from above orbital plane
View from above orbital plane
View from above satellite
View from above satellite

Ground track
Ground track

The orbit data is extracted from the following two-line orbital elements,

1 37854U 11061E   16038.91315555 +.00005646 +00000-0 +32400-3 0  9991
2 37854 101.7048 015.8611 0177742 097.8791 264.2634 15.00910973232099
Epoch (UTC): 07 February 2016 21:54:56
Eccentricity: 0.0177742
inclination: 101.7048°
perigee height: 441 km
apogee height: 687 km
right ascension of ascending node: 15.8611°
argument of perigee: 97.8791°
revolutions per day: 15.00910973
mean anomaly at epoch: 264.2634°
orbit number at epoch: 23209

The dashed part of the orbit path shows where the satellite is in the earth's shadow,  

DLR